Regional Weather Roundup
Issued by NWS

Home | Current Version | Previous Version | Text Only | Print | Product List | Glossary On
Versions: 1 2 3 4 5 6 7 8 9 10 11 12 13 14 15 16 17 18 19 20 21 22 23 24 25 26 27
000
ASUS46 KSEW 220410
RWRWA

WASHINGTON REGIONAL WEATHER ROUNDUP
NATIONAL WEATHER SERVICE SEATTLE WA
800 PM PST TUE FEB 21 2017

NOTE:"FAIR" INDICATES FEW OR NO CLOUDS BELOW 12,000 FEET WITH NO
SIGNIFICANT WEATHER AND/OR OBSTRUCTIONS TO VISIBILITY.

WAZ507-509-555>559-220500-
SEATTLE, TACOMA, EVERETT, AND VICINITY

CITY           SKY/WX    TMP DP  RH WIND       PRES   REMARKS
EVERETT        LGT RAIN  39  37  92 NW8       30.07S FOG
BOEING FIELD   LGT RAIN  42  40  92 SE8       30.09R
RENTON         LGT RAIN  42  42 100 N6        30.09R
SEATAC AIRPORT CLOUDY    43  40  89 E7        30.08R
JBLM-MCCHORD   MOCLDY    39  39 100 S6        30.08R
PUYALLUP         N/A     41  41 100 S5        30.08R
BREMERTON      MOCLDY    39  37  93 SE3       30.09S
JBLM-FT LEWIS  MOCLDY    41  41 100 S7        30.08R
TACOMA NARROWS MOCLDY    41  35  79 S7        30.08R
$$

WAZ001-503-506-510-514-515-220500-
NORTH INTERIOR

CITY           SKY/WX    TMP DP  RH WIND       PRES   REMARKS
BELLINGHAM     PTCLDY    36  35  96 CALM      30.05R
FRIDAY HARBOR  MOCLDY    43  32  65 SW8       30.06R
EASTSOUND      PTCLDY    37  34  87 CALM      30.04S
PORT ANGELES   PTCLDY    37  32  82 W8        30.08R
EDIZ HOOK      FAIR      42  32  67 W13       30.09R
PORT TOWNSEND  CLOUDY    43  39  87 SW5       30.08R
NAS WHIDBEY    MOCLDY    46  33  60 W22G28    30.10R
ARLINGTON      CLOUDY    37  28  70 N6        30.10R
BURLINGTON     CLEAR     41  32  70 CALM      30.07R
$$

WAZ020-022-039-040-504-511-512-220500-
SOUTHWEST INTERIOR

CITY           SKY/WX    TMP DP  RH WIND       PRES   REMARKS
SHELTON        MOCLDY    41  33  73 SW10      30.06R
OLYMPIA        MOCLDY    42  34  73 SW10      30.10R
CHEHALIS       FAIR      43  37  81 CALM      30.12R
KELSO          PTCLDY    40  37  89 CALM      30.15R
VANCOUVER      PTCLDY    41  41 100 CALM      30.15R
SCAPPOOSE, OR  PTCLDY    37  34  89 W3        30.14R
PORTLAND, OR   PTCLDY    41  38  89 CALM      30.15R
$$

WAZ021-516-517-220500-
WASHINGTON COAST

CITY           SKY/WX    TMP DP  RH WIND       PRES   REMARKS
FORKS          CLEAR     35  33  92 E3        30.11R
HOQUIAM        CLEAR     43  35  73 W5        30.12S
ASTORIA, OR    MOCLDY    41  35  79 W6        30.15R
$$

WAZ019-023-024-040-567>569-220500-
CASCADE MOUNTAINS AND COLUMBIA GORGE

CITY           SKY/WX    TMP DP  RH WIND       PRES   REMARKS
STAMPEDE PASS  NOT AVBL
TROUTDALE, OR  MOCLDY    42  39  89 CALM      30.15R
THE DALLES, OR CLOUDY    44  37  76 NW12      30.07R
$$

WAZ026-027-041>044-520-521-220500-
EAST SLOPES

CITY           SKY/WX    TMP DP  RH WIND       PRES   REMARKS
OMAK           MOCLDY    34  29  82 CALM      29.95R
WENATCHEE      MOCLDY    36  32  85 VRB5      29.96R
ELLENSBURG     MOCLDY    36  27  69 NW10      29.96R
YAKIMA         CLOUDY    37  34  89 NW5       30.00R
SUNNYSIDE ARPT CLOUDY    32  32 100 CALM      30.01S FOG
$$

WAZ028-034-035-220500-
COLUMBIA BASIN

CITY           SKY/WX    TMP DP  RH WIND       PRES   REMARKS
EPHRATA        FOG       34  30  85 E7        29.95R VSB 1/4
MOSES LAKE     FOG       33  31  92 S6        29.96R VSB 1/4
PASCO          CLOUDY    41  37  86 CALM      30.01R
HERMISTON, OR  CLOUDY    43  38  82 SW7       30.01R
$$

WAZ036>038-220500-
NORTHEAST WASHINGTON

CITY           SKY/WX    TMP DP  RH WIND       PRES   REMARKS
SPOKANE GEIGER DRZL/FOG  32  32 100 SW12      29.92R VSB 3/4 WCI  23
SPOKANE FELTS  CLOUDY    35  33  92 W6        29.94R
FAIRCHILD AFB  NOT AVBL
COEURDALENE,ID CLOUDY    33  32  96 SW10      29.92R FOG     WCI  25
DEER PARK      CLOUDY    34  31  88 S9        29.91R
$$

WAZ029>033-220500-
SOUTHEAST WASHINGTON

CITY           SKY/WX    TMP DP  RH WIND       PRES   REMARKS
PULLMAN        LGT SNOW  33  31  92 W10       29.95R FOG     WCI  25
LEWISTON, ID   LGT RAIN  38  35  89 E6        29.97R
WALLA WALLA    CLOUDY    41  38  89 S9        30.00R
PENDLETON, OR  LGT RAIN  40  37  89 NW8       30.00R
$$




USA.gov is the U.S. government's official web portal to all federal, state and local government web resources and services.